Location: *
(58.7167°N, 26.1833°E)
Time: 22:30:28
(UTC+00:00)

NOSS 3-3 (C) - Pass Details

Date: 25 August 2019
Orbit: 851 x 1362 km, 63.4° (Epoch: 10 September)

Event Time Altitude Azimuth Distance (km) Brightness Sun altitude
Exits shadow 23:17:57 34° 201° (SSW) 1,541 4.5 -19.6°
Maximum altitude 23:20:40 61° 135° (SE) 1,136 4.2 -19.5°
Drops below altitude 10° 23:27:31 10° 58° (ENE) 2,981 7.2 -19.2°
Sets 23:30:24 0° 55° (NE) 4,022 8.1 -19.1°
